Hourly Data Report for January 11, 2004

TORONTO CITY
ONTARIO

43°40'00.000" N
79°24'00.000" W
112.50 m
6158355
71508
XTO

Download Data

Hourly Data (January 2004)
Hourly Data Report for January 11, 2004
TIME
LST
Temp Definition
°C
Dew Point Definition
°C
Rel Hum Definition
%
Precip. Amount Definition
mm

Wind Dir Definition
10's deg

Wind Spd Definition
km/h
Visibility Definition
km
Stn Press Definition
kPa
Hmdx Definition


Wind Chill Definition


Weather Definition


00:00 -9.4 -14.1 69   LegendMM LegendMM LegendMM 101.20     LegendNANA
01:00 -8.8 -12.0 78   LegendMM LegendMM LegendMM 101.08     LegendNANA
02:00 -7.6 -10.9 77   LegendMM LegendMM LegendMM 101.00     LegendNANA
03:00 -7.1 -10.7 75   LegendMM LegendMM LegendMM 100.92     LegendNANA
04:00 -6.9 -10.5 75   LegendMM LegendMM LegendMM 100.80     LegendNANA
05:00 -6.4 -9.5 79   LegendMM LegendMM LegendMM 100.72     LegendNANA
06:00 -5.5 -8.3 81   LegendMM LegendMM LegendMM 100.62     LegendNANA
07:00 -4.8 -7.9 79   LegendMM LegendMM LegendMM 100.52     LegendNANA
08:00 -4.6 -7.6 80   LegendMM LegendMM LegendMM 100.48     LegendNANA
09:00 -4.2 -7.2 80   LegendMM LegendMM LegendMM 100.48     LegendNANA
10:00 -3.7 -7.2 77   LegendMM LegendMM LegendMM 100.46     LegendNANA
11:00 -2.9 -6.3 77   LegendMM LegendMM LegendMM 100.41     LegendNANA
12:00 -2.4 -6.4 74   LegendMM LegendMM LegendMM 100.31     LegendNANA
13:00 -1.8 -6.6 70   LegendMM LegendMM LegendMM 100.20     LegendNANA
14:00 -1.4 -5.6 73   LegendMM LegendMM LegendMM 100.13     LegendNANA
15:00 -1.6 -4.5 81   LegendMM LegendMM LegendMM 100.09     LegendNANA
16:00 -1.6 -3.2 89   LegendMM LegendMM LegendMM 100.03     LegendNANA
17:00 -1.6 -3.1 89   LegendMM LegendMM LegendMM 99.97     LegendNANA
18:00 -1.8 -2.6 94   LegendMM LegendMM LegendMM 99.92     LegendNANA
19:00 -1.9 -2.8 94   LegendMM LegendMM LegendMM 99.86     LegendNANA
20:00 -1.9 -2.4 96   LegendMM LegendMM LegendMM 99.75     LegendNANA
21:00 -0.7 -1.4 95   LegendMM LegendMM LegendMM 99.68     LegendNANA
22:00 -0.5 -0.9 97   LegendMM LegendMM LegendMM 99.61     LegendNANA
23:00 -0.5 -0.9 97   LegendMM LegendMM LegendMM 99.57     LegendNANA

Notes on Data Quality.

Legend

  • E = Estimated
  • M = Missing
  • NA = Not Available*
  • [empty] = Indicates an unobserved value
Date modified: